COSMOS 1275 DEB

Satellite information

Favourite Embed

Satellite Type and Status

DEBRISIN ORBIT

Key statistics

Satellite COSMOS 1275 DEB at a glance.

Uptime

16042

Days in orbit

Revolutions

≈ 14.1

Per day

Orbit

LEO

Low Earth Orbit

Inclination

82.8

Latest

Satellite identification and parameters

Extended collection of information and parameters for COSMOS 1275 DEB.

Object identification

Identified? True

Debris? True

Object name: COSMOS 1275 DEB

International designator: 1981-053JQ

Object number (NORAD): 14627

Object ID (CCSDS): 14627

Country: COMMONWEALTH OF INDEPENDENT STATES (CIS)

Current information (Y/N): Y

RCS size: SMALL

Orbital parameters

Period: 102.403 minutes

Inclination: 82.783 deg

SMA: 7250.51 km

Apoapsis: 900.065 km

Periapsis: 844.686 km

RAAN: 12.1065 deg

Eccentricy: 0.003819

Argument of periapsis: 118.6818 deg

Mean anomaly: 257.5454 deg

Mean motion: 14.06209081 rev/day

Mean motion (dot): 0.0000262 rev/day2

B* drag term: 0.0015729 1/REarth

Two-line elements (TLE)

Creation date: May 5, 2025, 2:11 a.m.

Reference frame: TEME

Reference center: EARTH

Epoch: May 4, 2025, 10:19 p.m. UTC

TLE line 0: 0 COSMOS 1275 DEB

TLE line 1: 1 14627U 81053JQ 25124.93032314 .00002620 00000-0 15729-2 0 9992

TLE line 2: 2 14627 82.7830 12.1065 0038190 118.6818 257.5454 14.06209081104029

Live tracking on map

Real-time ground track for satellite COSMOS 1275 DEB.

In-orbit conjunctions

A list of the most updated potential collisions computed for object COSMOS 1275 DEB.

Target Orbit TCA Probability of collision Miss distance Type
DELTA 1 R/B(1) MEO 2025-01-15 21:08:49 0.0003471692 253.0 (m) ROCKET BODY
FENGYUN 1C DEB SSO 2024-11-11 07:37:57 0.0001029181 368.0 (m) DEBRIS
FENGYUN 1C DEB SSO 2024-11-10 10:10:54 0.0001949308 671.0 (m) DEBRIS
CZ-6A DEB SSO 2024-11-08 13:48:36 0.0001174849 269.0 (m) DEBRIS

Associated space launch

Navigation satellite providing location information for the Tsiklon-B navigation system

COSMOS 1275 DEB was lifted into orbit during the mission ‘Kosmos-3M | Parus 27’, on board a Kosmos-3M space rocket.

The launch took place on June 4, 1981, 3:41 p.m. from 132/2.

For more information about the launch, click the button.

Launch to space Kosmos-3M | Parus 27
Kosmos-3M | Parus 27

Agency: N/A

Status: Launch Successful

Launch date: June 4, 1981, 3:41 p.m. UTC

Rocket: Kosmos-3M

Launch pad: 132/2

Location: Plesetsk Cosmodrome, Russian Federation

...

Latest news about this satellite

There are no fresh news available about this satellite. Check back as we update our databases every day.


Newsletter sign-up

Weekly statistics, charts and insights to help you stay on top of the space industry.